Theta_e
330 330 324 321 307 302 297 304 311 313 316 320 316 314 311 312 313 309 325 337 339 338 343 347 352 352 351 350 349 349 347 346 344 341 339 337 336 335 334 334 334 334 334 334 333 334 334 335 335
323 319 322 315 303 297 299 306 305 316 320 322 318 316 313 313 324 325 327 342 340 338 342 343 352 352 352 351 350 349 348 346 344 342 341 340 339 338 337 336 335 336 336 336 336 336 336 336 337
326 319 310 307 304 297 300 309 313 318 322 321 318 320 317 317 327 327 331 344 341 338 340 341 353 352 352 352 351 350 349 347 345 343 342 342 341 340 340 339 339 339 340 339 339 340 339 339 339
322 316 311 304 303 308 308 312 317 319 321 323 321 315 319 328 326 330 342 345 342 341 339 346 352 352 352 352 352 351 350 349 348 345 345 344 343 343 345 342 342 342 342 343 343 343 342 341 341
318 312 302 301 303 310 314 316 318 317 318 319 321 314 316 324 329 329 335 345 343 342 338 346 352 353 353 353 353 351 351 350 349 349 347 346 347 347 346 344 344 344 345 344 345 345 345 344 344
308 310 299 299 304 310 313 315 318 318 319 318 316 315 315 323 324 327 330 330 342 341 339 345 351 353 353 353 353 352 351 350 350 350 350 349 349 349 347 346 346 346 347 345 344 344 345 344 344
309 303 299 301 303 307 311 316 314 314 312 315 317 313 316 320 324 325 328 328 329 341 342 344 346 349 353 353 352 351 351 350 350 350 350 350 350 350 349 348 347 347 346 345 343 342 342 342 341
313 305 300 302 302 305 313 315 313 311 314 322 322 313 311 319 326 325 324 327 327 338 344 343 344 344 345 347 353 352 352 351 350 351 350 350 350 350 349 348 348 346 345 343 342 341 340 342 343
320 302 297 300 303 306 313 311 318 319 316 318 320 318 321 325 326 321 319 319 321 332 343 344 343 343 343 345 349 353 353 352 352 351 351 348 343 342 343 345 346 347 345 344 343 341 341 340 339
313 302 302 307 309 308 312 314 315 315 315 315 318 322 324 322 319 318 316 316 314 317 339 343 343 343 342 344 343 347 346 345 346 345 343 342 338 334 336 341 349 349 347 345 343 341 339 337 330
312 305 308 309 311 313 312 314 318 315 312 315 315 318 320 319 319 319 318 316 316 317 324 342 342 343 342 341 341 345 344 343 344 341 338 339 338 336 339 333 338 338 344 335 339 336 334 329 328
307 311 312 311 313 312 311 316 315 315 314 320 320 322 321 319 317 318 317 316 316 316 316 324 340 343 342 341 339 343 342 341 340 340 338 336 337 335 333 332 331 331 332 331 330 330 331 328 329
306 308 312 315 314 313 316 314 314 314 319 320 320 320 318 319 319 319 320 319 317 316 317 320 331 341 341 338 339 342 341 340 338 338 339 339 335 332 332 331 331 331 331 331 331 332 330 329 329
308 310 310 310 311 313 311 312 313 315 318 317 317 317 317 318 319 318 319 317 317 321 320 321 331 339 339 337 339 342 341 341 339 339 340 338 334 332 333 333 332 330 331 329 328 327 326 326 328
305 302 305 307 310 309 312 307 309 314 316 316 315 316 316 317 320 318 318 317 321 320 320 322 332 338 338 337 340 339 340 341 338 336 338 336 334 333 333 331 330 331 331 330 329 328 328 326 326
302 302 296 304 307 311 310 302 310 315 314 313 315 316 316 316 319 318 318 318 319 321 322 325 342 340 341 338 338 341 336 334 331 331 334 337 335 334 333 332 329 330 330 329 327 326 326 326 325
298 293 295 300 307 308 307 303 310 314 313 312 314 314 316 315 315 317 320 319 320 322 323 329 340 340 340 341 340 338 334 331 332 333 332 336 337 337 333 330 329 330 329 328 327 326 325 323 322
292 294 297 297 303 306 304 304 308 311 311 312 313 314 315 314 314 316 319 320 323 328 330 332 339 340 341 341 340 335 335 331 331 331 331 335 335 337 332 331 330 330 328 327 326 325 324 323 322
298 297 296 300 304 303 301 302 305 309 308 309 311 311 311 312 315 316 319 322 327 331 336 335 338 339 342 340 334 330 329 329 328 331 332 334 334 334 331 329 329 329 327 326 326 324 323 321 322
295 293 294 300 304 302 301 301 306 308 308 310 311 310 312 311 315 317 319 326 327 330 332 333 338 338 337 336 332 331 330 328 329 330 332 331 331 332 330 329 330 329 326 326 325 323 320 321 322
294 293 293 294 300 301 299 296 300 305 309 311 312 312 312 312 312 313 324 325 327 330 330 332 336 336 335 333 332 332 331 330 327 328 329 330 332 333 330 331 329 327 326 324 325 324 322 318 320
290 298 297 297 295 290 297 288 297 302 304 308 310 309 311 312 314 313 324 325 327 329 331 334 335 334 334 331 330 327 325 321 324 326 328 331 332 331 332 329 328 326 327 324 325 327 322 320 316
294 299 297 297 294 292 293 289 296 301 301 304 308 310 311 312 311 312 324 328 329 330 330 333 333 332 333 331 331 329 327 327 326 327 327 329 330 329 331 329 327 327 326 325 324 323 322 322 318
299 297 296 295 292 286 291 291 293 296 300 302 307 308 310 309 312 324 327 329 329 331 332 332 331 331 332 332 331 327 325 326 325 325 325 326 326 328 331 330 327 326 325 324 324 323 323 323 323
294 290 283 283 284 284 293 291 295 299 303 306 306 308 309 310 317 324 325 326 328 329 331 331 330 330 330 331 329 327 327 326 325 324 324 325 325 325 327 326 326 326 325 325 325 324 323 324 322
289 290 284 279 281 285 293 289 293 303 307 308 309 308 309 309 322 324 325 326 328 330 330 329 330 329 330 328 328 327 329 326 326 326 326 326 326 326 327 326 327 327 328 326 324 325 325 324 323
288 286 293 287 290 286 289 294 299 302 303 306 307 308 316 318 322 323 324 326 328 328 328 329 330 329 330 328 327 327 327 327 326 327 327 327 328 330 328 328 327 327 326 325 323 324 323 324 324
294 294 286 288 281 281 288 290 291 298 301 304 306 308 317 320 321 323 324 326 328 329 328 329 329 329 328 327 326 327 326 327 327 327 326 329 329 329 328 328 327 326 325 326 326 324 325 322 323
290 287 288 289 289 284 283 288 299 304 305 304 307 309 318 319 321 323 324 326 327 328 329 329 328 327 326 325 326 327 327 327 326 326 328 328 327 329 328 328 326 325 326 326 324 323 325 324 324
295 291 289 285 285 289 288 289 301 304 305 307 308 309 319 320 322 323 324 326 326 326 328 327 325 325 326 326 327 327 329 327 326 326 327 329 327 328 328 328 329 328 328 326 324 324 326 325 324
Wind_Speed
2 3 2 2 3 2 4 8 9 9 9 8 4 7 3 5 6 5 4 11 17 17 15 17 20 20 19 18 18 17 17 16 15 14 13 12 11 10 9 8 8 7 6 4 3 3 2 2 3
2 2 2 2 2 1 6 8 4 6 8 12 8 4 5 6 7 11 9 16 18 17 14 14 20 20 20 19 19 17 17 16 15 14 13 12 11 10 9 8 7 7 7 6 5 4 4 4 4
4 2 2 3 5 6 5 2 4 2 2 3 11 0 6 7 6 7 13 18 17 15 13 12 20 20 20 19 19 18 16 16 16 15 13 12 11 10 9 8 8 8 7 7 7 6 7 6 6
2 1 4 2 8 12 11 18 2 3 9 14 23 1 6 1 5 9 20 21 18 16 15 14 19 19 19 20 19 19 18 17 17 16 15 14 13 12 10 10 9 10 9 9 10 10 9 8 8
2 3 3 5 8 13 17 17 10 5 4 11 25 5 7 4 11 10 18 17 18 16 16 17 21 19 18 19 20 20 20 18 17 17 16 15 13 11 11 11 10 10 11 11 10 10 11 7 8
2 3 3 7 12 17 17 16 9 9 10 7 2 8 5 8 9 9 9 15 17 19 17 18 26 22 19 18 19 19 19 19 19 18 17 15 14 12 11 12 11 11 11 11 10 9 8 6 8
2 2 6 9 15 18 15 10 7 7 6 6 3 6 4 6 8 9 10 10 14 17 17 16 19 23 26 22 20 19 18 19 19 18 18 16 15 13 13 12 13 12 11 10 10 9 7 6 7
3 2 6 8 12 19 14 14 8 3 10 4 4 1 5 6 10 9 8 10 10 17 17 17 16 19 19 18 24 22 20 19 18 18 17 17 16 14 14 14 14 13 12 12 11 10 9 8 7
7 3 8 10 10 14 17 14 19 7 3 2 3 3 3 10 10 7 5 3 4 9 13 14 16 15 17 17 18 22 23 20 18 16 16 13 5 7 11 13 16 15 14 14 12 11 10 10 11
11 8 15 15 12 13 17 19 17 16 2 5 3 7 8 7 6 6 1 5 4 4 14 15 15 15 14 12 13 14 14 11 10 8 6 5 5 6 9 12 20 16 17 16 14 13 12 11 4
17 19 17 16 17 17 20 18 15 22 13 5 4 8 8 6 7 7 5 6 7 7 8 15 15 16 17 14 11 8 7 8 8 10 8 7 7 5 5 3 3 5 12 5 9 6 5 5 5
21 21 19 18 20 21 22 18 18 19 16 5 15 17 9 9 9 8 8 6 7 8 7 12 16 15 15 10 10 11 9 9 8 10 11 7 5 5 4 3 4 5 4 5 5 4 6 6 7
24 18 19 21 22 23 21 23 21 21 21 14 12 9 10 9 9 10 10 9 9 7 6 4 12 15 15 12 10 10 10 9 10 10 11 8 5 5 3 4 4 5 5 5 5 4 5 5 6
12 16 20 18 20 21 24 24 22 21 12 15 18 20 11 9 11 6 8 10 7 7 8 6 10 15 15 14 12 11 10 10 9 8 9 10 6 5 4 3 4 4 4 4 4 3 4 4 4
18 20 21 24 20 22 21 30 28 14 14 19 17 18 13 10 10 11 11 7 8 8 8 7 9 10 16 13 8 8 8 8 8 8 10 9 7 6 5 3 2 4 3 3 1 2 2 2 3
18 17 22 19 21 22 17 34 15 17 17 18 15 18 13 10 9 9 8 8 8 7 9 5 9 11 9 8 6 5 6 5 5 5 6 9 8 7 5 3 3 3 3 3 2 3 4 4 4
12 21 23 24 24 16 14 29 20 16 20 24 21 20 18 12 11 9 8 8 8 8 7 8 9 12 9 9 7 6 7 5 5 5 4 8 8 8 6 4 3 4 3 3 3 4 3 3 4
11 22 26 26 13 17 20 27 28 26 21 21 22 20 19 14 11 9 11 9 4 7 8 9 7 10 8 6 6 5 5 3 4 4 4 7 6 7 6 5 5 4 3 3 3 5 4 3 4
19 23 18 17 18 16 19 25 26 18 11 16 17 13 10 9 10 8 9 2 8 6 9 9 12 8 9 7 6 4 4 3 3 3 6 7 6 6 6 4 4 4 4 5 5 3 5 3 3
23 24 21 14 12 17 21 20 25 21 18 23 22 11 12 8 7 7 5 8 6 8 8 9 9 9 7 6 4 4 4 3 4 4 5 7 7 7 6 5 5 5 3 5 5 4 2 3 4
27 26 18 21 12 19 11 13 19 16 15 12 12 11 7 10 10 10 8 9 8 9 9 9 8 9 8 8 5 3 4 3 3 2 3 5 7 6 6 6 5 5 4 4 5 5 6 4 3
25 12 21 18 13 21 5 15 19 16 20 16 12 8 9 9 9 9 10 10 9 8 8 9 9 9 7 8 5 6 5 4 3 3 3 4 6 6 5 6 6 5 4 4 4 4 4 4 4
22 16 18 12 17 16 16 6 26 8 12 9 10 17 14 13 11 10 13 12 9 9 9 9 9 8 6 8 8 5 4 2 2 3 7 4 3 5 5 6 5 5 4 4 5 4 5 4 4
17 17 18 15 11 14 17 12 33 18 20 8 9 12 13 11 9 12 15 14 12 11 10 9 9 6 7 7 7 7 5 5 5 4 4 4 2 3 5 4 5 4 3 4 4 4 6 5 4
13 13 7 9 12 19 12 11 23 5 14 20 15 16 11 10 11 18 18 15 14 13 11 9 9 7 7 8 7 7 7 6 5 3 3 3 1 2 4 4 4 3 3 4 3 5 4 4 3
13 13 11 16 12 15 7 18 13 13 18 18 20 15 10 7 15 17 18 16 15 14 12 10 9 7 7 7 7 6 6 3 1 3 2 3 2 2 3 4 5 4 4 3 5 3 2 3 2
21 20 13 17 15 7 7 20 23 26 26 18 17 6 8 12 17 17 15 14 16 14 11 10 10 8 7 7 7 6 5 5 4 4 3 2 2 2 4 5 5 4 4 6 5 2 2 3 3
14 11 8 10 18 17 8 15 13 16 16 19 9 11 11 16 17 15 13 14 13 13 10 10 9 9 7 8 7 5 6 6 5 5 4 3 3 3 5 5 5 5 3 6 4 2 2 5 3
8 17 13 7 11 11 12 13 14 11 8 9 11 10 18 17 17 17 14 14 14 12 12 9 9 8 8 8 6 6 5 5 4 3 4 4 3 6 5 5 5 5 6 6 4 3 3 6 4
18 20 16 10 9 10 6 12 7 11 5 9 11 11 19 19 18 16 17 16 14 11 11 9 8 8 8 7 6 7 6 5 5 4 3 4 3 4 6 5 5 4 6 6 5 3 5 5 4
Wind_Direction
160 209 214 285 44 94 257 256 232 349 338 292 37 76 70 72 107 158 198 119 130 143 159 166 166 165 161 158 158 159 158 157 156 156 158 158 158 158 157 160 162 170 168 177 182 189 223 265 292
255 238 329 280 115 159 264 231 250 184 239 12 311 120 64 66 97 121 111 142 141 146 159 168 171 170 166 165 163 166 166 163 162 166 167 168 169 169 171 178 182 193 198 199 201 213 226 239 259
322 213 36 183 194 213 243 354 230 154 36 282 316 135 110 131 117 129 137 136 131 142 156 171 175 175 172 169 167 170 172 168 171 173 174 177 181 183 186 194 200 209 217 222 222 226 232 236 243
180 288 310 248 257 270 255 274 10 110 123 305 285 58 46 56 111 144 136 136 135 149 160 173 180 182 179 174 173 175 177 176 177 179 182 186 188 190 195 211 221 223 228 234 238 237 238 242 243
233 266 241 235 248 257 255 259 230 191 171 276 229 173 125 53 104 109 136 144 143 158 166 168 181 186 187 182 179 181 181 182 183 184 188 191 195 195 199 214 226 235 239 241 249 258 250 251 250
271 186 274 242 260 259 272 278 204 205 197 243 108 135 130 135 109 149 148 159 159 162 168 170 178 183 189 192 189 189 188 186 188 190 191 192 195 196 203 215 223 236 243 239 246 256 267 248 254
238 330 233 262 267 284 284 344 312 331 7 48 77 86 149 133 155 156 172 182 161 167 163 171 177 181 182 190 195 193 197 194 193 194 196 193 195 195 204 214 222 226 225 228 236 241 242 232 241
217 250 278 271 276 285 296 315 297 66 345 105 100 57 182 205 167 172 196 187 188 165 168 174 179 181 181 184 188 194 195 200 200 202 202 196 197 196 207 214 220 221 219 222 227 231 231 228 229
230 229 255 250 253 276 299 324 312 323 46 344 67 29 299 158 172 178 212 235 203 157 174 175 177 186 183 182 188 187 194 197 201 208 211 204 198 198 214 221 220 213 212 218 218 224 228 231 233
219 224 235 245 259 277 296 298 301 314 206 235 359 339 298 275 162 220 149 266 298 211 191 182 178 179 178 183 183 191 186 189 190 195 203 197 211 217 220 222 225 205 206 206 213 223 235 244 220
236 238 241 259 258 264 270 279 306 301 303 235 59 264 295 247 192 201 219 237 243 242 153 187 183 181 178 183 178 181 188 183 178 184 185 197 217 218 226 232 226 180 200 181 211 224 220 212 224
244 236 238 249 263 272 272 278 276 281 282 220 204 228 245 252 255 261 259 255 264 255 255 178 182 180 186 182 176 173 179 184 182 187 191 186 203 211 214 184 180 159 176 191 202 199 211 208 229
238 247 239 243 247 254 269 272 269 273 281 292 300 269 269 251 239 233 228 236 237 231 259 253 166 181 184 180 175 174 183 185 179 181 191 187 176 191 223 235 183 192 185 186 202 196 205 205 229
264 254 256 250 242 248 257 264 264 260 266 288 284 285 270 262 260 239 231 242 217 215 228 209 180 183 176 180 171 177 177 181 178 178 181 170 171 176 191 220 203 197 180 182 178 203 184 196 215
263 266 271 261 258 247 255 260 253 272 277 273 264 268 264 268 252 250 230 215 194 217 224 208 189 162 177 172 154 165 175 174 174 165 161 155 158 173 170 186 196 214 178 173 146 218 203 222 226
259 258 254 255 261 253 253 262 273 274 277 275 274 281 268 266 259 271 221 202 226 222 214 176 155 160 150 144 141 134 138 132 141 140 140 153 162 168 183 198 229 177 164 167 191 215 230 223 225
234 239 249 249 236 253 248 275 270 271 260 254 256 262 265 250 259 253 232 225 232 221 193 156 158 160 149 140 135 127 133 134 129 127 152 153 160 172 169 193 206 162 163 193 207 225 196 200 230
217 226 235 246 239 237 243 255 264 263 258 259 263 258 248 234 237 245 234 234 219 149 170 146 157 140 130 119 110 99 103 131 130 139 161 161 172 175 173 182 175 171 182 217 222 217 211 190 208
246 240 252 244 243 262 256 258 268 268 262 268 262 259 222 220 238 249 246 185 115 110 121 134 137 144 134 139 128 120 140 142 125 151 184 163 164 153 169 164 173 175 187 216 209 195 208 227 185
245 261 262 263 246 246 247 257 255 252 252 249 255 247 237 235 211 211 189 145 139 131 117 114 120 132 117 121 120 129 141 160 171 189 194 168 150 155 163 166 187 192 214 209 206 188 181 203 177
232 238 247 256 286 279 288 290 285 283 273 261 252 246 220 219 221 234 151 154 141 136 134 129 125 126 123 133 115 95 83 68 80 135 140 168 151 157 169 186 186 201 189 196 205 196 182 181 207
243 233 238 253 240 255 205 272 264 265 264 266 262 263 251 239 223 223 147 155 146 140 125 115 124 125 127 140 116 129 135 137 186 176 167 146 155 177 182 184 178 188 183 204 219 199 175 155 188
253 225 258 256 246 262 253 270 265 214 253 248 256 253 255 256 230 230 159 142 133 126 120 118 119 121 123 134 135 135 114 113 137 113 119 122 148 166 184 195 177 186 189 216 216 181 191 184 170
263 242 244 258 261 263 247 221 267 240 250 250 242 249 241 236 224 127 126 126 126 117 111 121 125 128 128 109 138 124 143 94 97 108 116 155 183 218 221 187 166 180 184 205 201 204 186 195 208
260 232 248 237 228 238 219 243 235 251 235 238 241 248 250 239 137 136 137 136 134 128 127 129 121 126 123 104 113 102 111 105 119 113 127 134 172 220 222 187 175 184 194 191 167 166 193 203 191
254 233 219 214 216 246 236 241 238 240 261 239 246 242 243 231 136 143 139 139 134 133 136 130 124 128 129 125 121 118 122 126 114 135 122 144 164 196 181 168 162 185 187 167 164 178 193 179 183
251 249 246 251 280 224 234 240 263 258 258 256 244 222 118 106 134 134 133 135 133 138 137 135 130 138 145 140 130 136 140 120 130 120 113 129 156 178 157 159 156 185 186 165 162 150 175 139 132
233 259 249 223 233 254 242 250 256 263 256 235 215 155 131 132 129 127 135 133 134 140 133 133 137 151 149 134 140 165 157 154 139 144 154 155 189 155 151 148 170 179 140 153 144 140 148 133 128
268 238 240 279 218 231 256 258 262 273 201 171 182 159 148 146 141 140 136 134 139 133 138 139 142 144 133 141 167 145 151 135 130 134 148 143 123 141 151 161 183 186 149 152 146 173 150 134 152
285 265 231 226 251 232 240 247 249 268 173 151 188 147 148 144 141 140 137 138 139 133 140 140 143 136 145 154 156 146 133 133 136 130 134 142 141 159 169 187 188 194 153 156 168 190 150 147 155